[[{"header":{"parameterUnit":"m.s-1","parameterCategory":2,"la1":30.2991,"la2":30.254,"lo1":-89.0895,"lo2":-89.0444,"dy":0.0017,"dx":0.0017,"nx":28,"ny":28,"refTime":"2024-07-01T21:00:00:Z","depth":"0","parameterNumber":2,"parameterNumberName":"U-component_of_CURRENTS"},"data":[0,0,0,0,0,0,0,0,0,0,0,0,0,0,0,0,0,0,0,0,0,0,0,0,0,0,0,0,0,0,0,0,0,0,0,0,0,0,0,0,0,0,0,0,0,0,0,0,0,0,0,0,0,0,0,0,0,0,0.1003,0.1004,0,0.116,0.1162,0.1164,0.1168,0.1165,0.1163,0.116,0.1244,0.1248,0.1252,0,0,0,0,0,0,0,0,0,0,0,0,0,0.0862,0.0864,0.1003,0.1004,0.1006,0.1159,0.1162,0.1165,0.1168,0.1165,0.1162,0.1159,0.1242,0.1247,0.1253,0,0,0,0,0,0,0,0,0,0,0,0,0,0.0966,0.0864,0.1002,0.1022,0.1024,0.1159,0.1162,0.1166,0.1169,0.1165,0.1161,0.1158,0.124,0.1247,0.1254,0.1369,0,0,0.1274,0.1277,0,0,0,0,0,0,0,0,0.096,0.0972,0.1017,0.102,0.1024,0.1135,0.1143,0.1228,0.117,0.112,0.116,0.1156,0.12,0.121,0.1256,0.1373,0.1377,0.1275,0.1279,0.1282,0.1284,0,0,0,0,0,0,0,0.0953,0.0966,0.1071,0.1019,0.1023,0.1075,0.1085,0.1161,0.1182,0.1124,0.1123,0.1133,0.1201,0.125,0.1258,0.1378,0.1275,0.1281,0.1285,0.1287,0.1668,0.1673,0,0,0,0,0,0,0.0918,0.0959,0.1065,0.1075,0.0976,0.108,0.1091,0.1108,0.1182,0.1189,0.1136,0.1132,0.124,0.125,0.1261,0.1432,0.1282,0.1288,0.1292,0.1662,0.1669,0.1675,0,0,0,0,0,0,0.0915,0.0927,0.1059,0.1015,0.1035,0.1084,0.1104,0.1113,0.1171,0.1191,0.1197,0.1184,0.1238,0.1251,0.135,0.1433,0.1291,0.1297,0.1654,0.1664,0.1672,0.1755,0,0,0,0,0,0,0.0911,0.0925,0.0941,0.1013,0.1036,0.1144,0.1108,0.1118,0.1179,0.1176,0.1235,0.1238,0.1236,0.134,0.1357,0.144,0.1303,0.1647,0.1659,0.1669,0.1744,0.1766,0.1784,0,0,0,0,0,0.0905,0.0939,0.0941,0.0954,0.1051,0.1146,0.1165,0.1191,0.1185,0.1228,0.1272,0.1237,0.1424,0.1351,0.1369,0.1455,0.1641,0.1655,0.1668,0.1736,0.1761,0.1783,0,0,0,0,0,0,0.0899,0.0945,0.0947,0.0996,0.1065,0.1144,0.1183,0.1217,0.1295,0.1284,0.1306,0.1316,0.1439,0.1456,0.1375,0.1608,0.1533,0.1551,0.1578,0.1603,0.1622,0.168,0.1308,0,0,0,0,0,0.0902,0.0931,0.0994,0.1039,0.1065,0.1136,0.1182,0.1206,0.1274,0.1305,0.1349,0.1419,0.1519,0.1558,0.1634,0.1759,0.1808,0.1836,0.1856,0.1871,0.1939,0.208,0.2117,0.172,0.172,0.172,0,0,0.0911,0.0942,0.0959,0.1039,0.1087,0.1188,0.1156,0.1229,0.1332,0.1304,0.1446,0.1487,0.1572,0.1705,0.1763,0.1719,0.2009,0.1889,0.1901,0.1962,0.2098,0.2136,0.217,0.1729,0.1727,0.1726,0,0,0.0995,0.0972,0.1054,0.1104,0.1179,0.1222,0.125,0.1342,0.139,0.1522,0.1548,0.1657,0.1773,0.1874,0.1937,0.2131,0.2109,0.2135,0.2275,0.2409,0.2442,0.2472,0.2554,0.2591,0.214,0.214,0.214,0,0.1025,0.1131,0.1098,0.12,0.1265,0.1249,0.1385,0.1441,0.156,0.1642,0.1568,0.1838,0.188,0.2116,0.2175,0.2178,0.2219,0.2156,0.2431,0.2461,0.2491,0.2568,0.2607,0.2146,0.2145,0.2145,0.2144,0,0.1202,0.1274,0.1321,0.144,0.1492,0.1592,0.1643,0.1716,0.1744,0.1819,0.2012,0.2072,0.2233,0.2266,0.2277,0.2531,0.248,0.2429,0.2352,0.2535,0.2605,0.2644,0.2154,0.2152,0.215,0.2149,0,0,0.1377,0.144,0.1473,0.1544,0.1629,0.1698,0.1833,0.1997,0.2107,0.2176,0.2347,0.2531,0.2524,0.2606,0.2625,0.2749,0.2962,0.2678,0.2682,0.2729,0.3226,0.3131,0.3162,0.2929,0.2937,0.2944,0.3178,0,0.1578,0.1756,0.1763,0.1956,0.2056,0.2051,0.2178,0.2283,0.2343,0.2467,0.2547,0.2684,0.266,0.2705,0.2844,0.2912,0.3076,0.2903,0.3074,0.3081,0.2948,0.3211,0.3171,0.3374,0.3216,0.3222,0.3227,0,0.1846,0.1903,0.2093,0.2197,0.2245,0.2342,0.2505,0.2615,0.2743,0.2781,0.2907,0.2906,0.3106,0.3011,0.3298,0.3168,0.326,0.3307,0.3314,0.3241,0.3063,0.318,0.345,0.3402,0.3287,0.3282,0.3278,0,0.2015,0.2185,0.2318,0.2354,0.2443,0.2539,0.2607,0.2734,0.2795,0.2959,0.2982,0.319,0.3238,0.3404,0.3463,0.3398,0.3723,0.3627,0.3664,0.3653,0.3675,0.3653,0.3907,0.393,0.393,0.3929,0.3928,0,0.2254,0.2373,0.239,0.2445,0.2577,0.2643,0.2788,0.2872,0.2971,0.3037,0.313,0.3194,0.3339,0.3467,0.3558,0.372,0.3813,0.3788,0.3758,0.3697,0.3675,0.367,0.3649,0.3938,0.3936,0.3934,0.3932,0,0.2391,0.2436,0.2541,0.2614,0.2636,0.2708,0.2764,0.2843,0.2975,0.3045,0.3074,0.3223,0.3417,0.3553,0.3804,0.3821,0.392,0.4038,0.392,0.3875,0.3808,0.3792,0.3844,0.3759,0.4137,0.4137,0.4136,0,0.2454,0.2527,0.2558,0.2551,0.2566,0.2649,0.2673,0.28,0.2851,0.304,0.3056,0.3272,0.3371,0.3687,0.3849,0.4058,0.3976,0.41,0.4013,0.3897,0.3861,0.3612,0.3518,0.4069,0.4068,0.4068,0.4067,0,0.2501,0.2504,0.2518,0.2487,0.25,0.2518,0.2583,0.2605,0.2759,0.2844,0.2971,0.3076,0.3418,0.3605,0.3882,0.4001,0.3932,0.4089,0.4061,0.3957,0.3627,0.3493,0.3761,0.4062,0.4063,0.4063,0.4063,0.4064,0.2461,0.2441,0.2423,0.2402,0.2385,0.2376,0.2387,0.2461,0.2523,0.2662,0.2821,0.3001,0.3385,0.3775,0.3838,0.4005,0.3921,0.4001,0.403,0.3812,0.3639,0.386,0.4041,0.4041,0.4041,0.4042,0.4042,0,0.2389,0.2373,0.233,0.2287,0.2231,0.2272,0.2298,0.232,0.2362,0.2542,0.2673,0.3065,0.3344,0.3651,0.3993,0.3969,0.3765,0.3941,0.3672,0.3611,0.3951,0.3856,0.3894,0.3894,0.3894,0.3894,0.3894,0.3894,0.2347,0.2291,0.2268,0.2149,0.2115,0.2061,0.2066,0.2117,0.2239,0.2439,0.2653,0.2857,0.3322,0.3876,0.4041,0.3991,0.3742,0.3619,0.3554,0.3903,0.3909,0.3916,0.3823,0.3854,0.3854,0.3062,0.3057,0.3054]},{"header":{"parameterUnit":"m.s-1","parameterCategory":2,"la1":30.2991,"la2":30.254,"lo1":-89.0895,"lo2":-89.0444,"dy":0.0017,"dx":0.0017,"nx":28,"ny":28,"refTime":"2024-07-01T21:00:00:Z","depth":"0","parameterNumber":3,"parameterNumberName":"V-component_of_CURRENTS"},"data":[0,0,0,0,0,0,0,0,0,0,0,0,0,0,0,0,0,0,0,0,0,0,0,0,0,0,0,0,0,0,0,0,0,0,0,0,0,0,0,0,0,0,0,0,0,0,0,0,0,0,0,0,0,0,0,0,0,0,0.0153,0.0153,0,0.0242,0.0244,0.0245,0.0285,0.0285,0.0284,0.0283,0.0231,0.023,0.0229,0,0,0,0,0,0,0,0,0,0,0,0,0,-0.0001,0.0003,0.0153,0.0153,0.0154,0.0242,0.0244,0.0246,0.0286,0.0285,0.0284,0.0283,0.0231,0.023,0.0229,0,0,0,0,0,0,0,0,0,0,0,0,0,0.0082,0.0004,0.0153,0.0179,0.0182,0.0242,0.0244,0.0246,0.0286,0.0285,0.0283,0.0282,0.0231,0.023,0.0229,0.0246,0,0,0.0226,0.0226,0,0,0,0,0,0,0,0,0.0077,0.0088,0.0175,0.0177,0.018,0.0245,0.017,0.0237,0.0286,0.0254,0.0283,0.0282,0.0219,0.0219,0.025,0.0243,0.0241,0.0226,0.0225,0.0225,0.0225,0,0,0,0,0,0,0,0.0071,0.0084,0.0195,0.0175,0.0178,0.018,0.0191,0.0184,0.0244,0.0257,0.0258,0.0257,0.022,0.0251,0.0249,0.024,0.0226,0.0225,0.0224,0.0224,0.0286,0.0288,0,0,0,0,0,0,0.0049,0.008,0.0192,0.0197,0.0117,0.0183,0.0196,0.0231,0.0248,0.0248,0.0258,0.0258,0.0254,0.025,0.0246,0.0322,0.0225,0.0224,0.0223,0.0284,0.0286,0.0289,0,0,0,0,0,0,0.0046,0.006,0.0189,0.0132,0.0148,0.0186,0.0226,0.0234,0.028,0.0249,0.0248,0.0296,0.0253,0.0248,0.0253,0.0317,0.0223,0.0223,0.0281,0.0285,0.0288,0.0436,0,0,0,0,0,0,0.0042,0.0059,0.0081,0.0132,0.015,0.0243,0.0226,0.0236,0.0276,0.0279,0.028,0.0274,0.0251,0.0255,0.0252,0.0314,0.0222,0.0278,0.0283,0.0287,0.0428,0.0444,0.0457,0,0,0,0,0,0.0037,0.0094,0.0083,0.0096,0.0179,0.0244,0.0256,0.0281,0.0279,0.0317,0.0306,0.0275,0.028,0.0256,0.0252,0.0315,0.0276,0.0281,0.0286,0.0421,0.044,0.0457,0,0,0,0,0,0,0.004,0.0103,0.0093,0.0164,0.0196,0.0248,0.0278,0.0297,0.0327,0.0315,0.0295,0.0289,0.0322,0.0292,0.0266,0.0345,0.0277,0.0282,0.0381,0.0399,0.0413,0.0473,0.0221,0,0,0,0,0,0.0045,0.0109,0.0143,0.0198,0.0209,0.0243,0.0271,0.0288,0.0313,0.0329,0.0326,0.0322,0.0343,0.0346,0.0344,0.0381,0.036,0.042,0.0435,0.0448,0.0494,0.0497,0.0516,0.0306,0.0306,0.0306,0,0,0.0058,0.01,0.0134,0.0201,0.0223,0.029,0.0262,0.0309,0.0381,0.0311,0.0391,0.0366,0.0361,0.041,0.0423,0.0392,0.0496,0.0454,0.0466,0.0506,0.0504,0.0525,0.0543,0.0309,0.0309,0.0308,0,0,0.0159,0.0149,0.0252,0.0275,0.0311,0.0322,0.034,0.0387,0.0419,0.0474,0.0454,0.0476,0.0488,0.052,0.0534,0.0629,0.0569,0.0613,0.0744,0.0745,0.0763,0.0779,0.0774,0.0788,0.0625,0.0626,0.0626,0,0.0181,0.0308,0.0285,0.0375,0.0409,0.0347,0.0453,0.0474,0.0521,0.0566,0.0509,0.0584,0.0562,0.0672,0.0707,0.067,0.0644,0.0677,0.0766,0.0781,0.0794,0.0785,0.0799,0.0634,0.0633,0.0632,0.0631,0,0.0371,0.0444,0.0492,0.0587,0.061,0.0675,0.0674,0.0708,0.0704,0.0731,0.0809,0.0776,0.0826,0.0824,0.0799,0.0903,0.0845,0.0779,0.0725,0.0825,0.0808,0.082,0.0645,0.0642,0.064,0.0638,0,0,0.0541,0.0622,0.0648,0.0697,0.0726,0.0768,0.085,0.0937,0.1021,0.1001,0.1112,0.1145,0.1094,0.1109,0.1064,0.1077,0.1139,0.0979,0.0976,0.0983,0.1134,0.1068,0.1072,0.107,0.1073,0.1075,0.1083,0,0.0721,0.0902,0.0914,0.1055,0.1125,0.1079,0.1172,0.1208,0.1222,0.128,0.1238,0.1295,0.1208,0.1223,0.1224,0.1153,0.1176,0.1143,0.1032,0.103,0.0964,0.1087,0.103,0.103,0.1093,0.1095,0.1096,0,0.0949,0.1027,0.1197,0.1278,0.1312,0.1378,0.1478,0.1555,0.1589,0.1604,0.1616,0.1539,0.1561,0.1439,0.1407,0.1377,0.1295,0.1228,0.1225,0.113,0.0986,0.0941,0.1047,0.077,0.1113,0.1112,0.111,0,0.1073,0.1239,0.1367,0.139,0.1466,0.1547,0.1595,0.1663,0.1735,0.1785,0.1819,0.1793,0.1773,0.1672,0.1512,0.1459,0.144,0.1335,0.1216,0.1208,0.1129,0.111,0.0969,0.1347,0.1347,0.1347,0.1347,0,0.1256,0.1367,0.1428,0.1476,0.1617,0.1654,0.1801,0.186,0.1944,0.2026,0.1971,0.2022,0.1829,0.1754,0.1593,0.1449,0.1502,0.1291,0.1228,0.1176,0.1162,0.0888,0.075,0.1347,0.1347,0.1347,0.1347,0,0.1363,0.1415,0.1527,0.1622,0.1656,0.174,0.1855,0.1963,0.2071,0.2166,0.2176,0.2189,0.2124,0.193,0.1773,0.1576,0.1276,0.1368,0.1317,0.1249,0.0844,0.0719,0.0614,0.047,0.1236,0.1234,0.1233,0,0.1446,0.1513,0.1574,0.1603,0.1642,0.176,0.1842,0.1979,0.2085,0.2269,0.2314,0.2319,0.2323,0.2087,0.1761,0.1496,0.1273,0.1247,0.1151,0.0864,0.0677,0.0622,0.0503,0.1097,0.1095,0.1094,0.1092,0,0.1558,0.1551,0.1601,0.1644,0.1712,0.1807,0.1943,0.2039,0.2216,0.2329,0.2492,0.2534,0.2359,0.2082,0.173,0.1515,0.1026,0.1202,0.0925,0.0605,0.0521,0.0335,0.1035,0.1077,0.1078,0.108,0.108,0.1081,0.1604,0.1626,0.1649,0.1692,0.176,0.1869,0.196,0.2116,0.2286,0.2488,0.2568,0.2677,0.2331,0.1865,0.1521,0.0851,0.0925,0.0634,0.0522,0.0506,0.0325,0.0999,0.0945,0.0946,0.0947,0.0947,0.0948,0,0.1644,0.1656,0.1703,0.1745,0.1816,0.1856,0.2037,0.2152,0.2329,0.2523,0.267,0.2607,0.206,0.1543,0.0698,0.0235,0.0077,-0.0006,-0.0123,-0.0204,0.0405,0.0349,0.014,0.014,0.014,0.014,0.0141,0.0141,0.1657,0.1686,0.1697,0.1789,0.183,0.1957,0.2055,0.2229,0.2407,0.2636,0.2745,0.2889,0.2536,0.0985,-0.0137,-0.04,-0.0765,-0.0763,-0.0933,-0.0578,-0.0528,-0.0481,-0.0567,-0.0965,-0.0967,-0.151,-0.1516,-0.152]}],[{"header":{"parameterUnit":"m.s-1","parameterCategory":2,"la1":30.2991,"la2":30.254,"lo1":-89.0895,"lo2":-89.0444,"dy":0.0017,"dx":0.0017,"nx":28,"ny":28,"refTime":"2024-07-01T21:00:00:Z","depth":"2","parameterNumber":2,"parameterNumberName":"U-component_of_CURRENTS"},"data":[0,0,0,0,0,0,0,0,0,0,0,0,0,0,0,0,0,0,0,0,0,0,0,0,0,0,0,0,0,0,0,0,0,0,0,0,0,0,0,0,0,0,0,0,0,0,0,0,0,0,0,0,0,0,0,0,0,0,0.0767,0.0767,0,0.0705,0.0704,0.0703,0.0648,0.0647,0.0647,0.0647,0.0542,0.054,0.0537,0,0,0,0,0,0,0,0,0,0,0,0,0,0.0716,0.0718,0.0767,0.0767,0.0766,0.0705,0.0704,0.0702,0.0648,0.0647,0.0647,0.0647,0.0543,0.054,0.0537,0,0,0,0,0,0,0,0,0,0,0,0,0,0.07,0.0718,0.0767,0.0736,0.0733,0.0705,0.0704,0.0702,0.0648,0.0647,0.0647,0.0647,0.0544,0.054,0.0537,0.0517,0,0,0.0524,0.0523,0,0,0,0,0,0,0,0,0.0701,0.0701,0.0741,0.0738,0.0734,0.0688,0.0648,0.064,0.0648,0.0674,0.0647,0.0647,0.0591,0.0583,0.0565,0.0512,0.0507,0.0524,0.0522,0.052,0.0519,0,0,0,0,0,0,0,0.0702,0.0703,0.0737,0.074,0.0737,0.0683,0.0681,0.0645,0.063,0.0672,0.0669,0.0671,0.0588,0.0569,0.0562,0.0506,0.0524,0.0521,0.0518,0.0517,0.0607,0.0612,0,0,0,0,0,0,0.0728,0.0705,0.0739,0.0736,0.0723,0.0685,0.0682,0.0699,0.0631,0.0622,0.0671,0.0668,0.0576,0.0567,0.0558,0.067,0.052,0.0516,0.0514,0.0603,0.0608,0.0613,0,0,0,0,0,0,0.0727,0.0732,0.0742,0.0722,0.072,0.0688,0.0706,0.0698,0.0671,0.0632,0.0621,0.0652,0.0575,0.0564,0.054,0.066,0.0515,0.0511,0.0597,0.0604,0.0611,0.0805,0,0,0,0,0,0,0.0726,0.0732,0.0746,0.0724,0.0722,0.0713,0.0706,0.0697,0.0676,0.0671,0.0612,0.0602,0.0574,0.0546,0.0536,0.0652,0.0508,0.0591,0.06,0.0609,0.0792,0.0817,0.0839,0,0,0,0,0,0.0725,0.0755,0.0748,0.0751,0.0745,0.0713,0.0705,0.0677,0.0675,0.0653,0.0639,0.0604,0.06,0.0544,0.0532,0.065,0.0586,0.0598,0.0608,0.0782,0.0813,0.0839,0,0,0,0,0,0,0.0745,0.0752,0.0743,0.0775,0.0738,0.0705,0.0712,0.0675,0.0645,0.0665,0.061,0.0599,0.0644,0.0606,0.0547,0.0711,0.061,0.0618,0.0747,0.0775,0.0798,0.0816,0.0505,0,0,0,0,0,0.0757,0.0775,0.0756,0.0773,0.0779,0.074,0.0726,0.0705,0.0681,0.0667,0.0641,0.065,0.0682,0.0686,0.0686,0.073,0.0699,0.0819,0.0843,0.0863,0.0875,0.0929,0.0958,0.0649,0.0649,0.0648,0,0,0.0766,0.0776,0.0782,0.0777,0.077,0.0806,0.0731,0.0729,0.0768,0.0663,0.072,0.0705,0.0706,0.0786,0.0808,0.0765,0.0936,0.0876,0.0893,0.0894,0.0943,0.0973,0.1,0.0656,0.0655,0.0654,0,0,0.0799,0.0815,0.0843,0.0839,0.0837,0.0841,0.084,0.0821,0.0824,0.0847,0.0836,0.0878,0.0884,0.0939,0.0965,0.1109,0.1047,0.1133,0.1274,0.1329,0.1354,0.1376,0.1371,0.1391,0.1159,0.116,0.116,0,0.0807,0.0853,0.0835,0.0876,0.0893,0.0872,0.0909,0.0934,0.0906,0.0926,0.0898,0.0996,0.0983,0.1124,0.1197,0.1168,0.1152,0.1162,0.1358,0.1379,0.1398,0.1387,0.1406,0.1171,0.1169,0.1168,0.1167,0,0.0879,0.0908,0.0937,0.1003,0.1011,0.104,0.108,0.11,0.112,0.1146,0.1243,0.1246,0.1304,0.1348,0.1314,0.1481,0.141,0.1367,0.1279,0.144,0.1419,0.1436,0.1186,0.1182,0.1179,0.1176,0,0,0.092,0.097,0.0988,0.0999,0.1079,0.1081,0.1195,0.1258,0.1299,0.1381,0.145,0.1586,0.1586,0.1616,0.1611,0.1675,0.1798,0.1591,0.1588,0.1572,0.1877,0.1777,0.1784,0.1783,0.1787,0.1791,0.1805,0,0.0977,0.1049,0.1077,0.1154,0.1188,0.1216,0.1297,0.1363,0.1404,0.1473,0.1595,0.1654,0.1701,0.1699,0.1815,0.1785,0.1851,0.1794,0.1734,0.1732,0.1614,0.1805,0.1739,0.1743,0.1821,0.1823,0.1825,0,0.1027,0.1081,0.1148,0.1174,0.1197,0.1256,0.1329,0.1387,0.1519,0.1549,0.1704,0.1738,0.1928,0.1872,0.2045,0.2003,0.1971,0.1945,0.1944,0.1793,0.1665,0.1598,0.1768,0.1851,0.1849,0.1847,0.1845,0,0.1005,0.1099,0.1144,0.1173,0.125,0.1277,0.1325,0.1416,0.1448,0.1586,0.1611,0.1849,0.1897,0.2016,0.2055,0.2035,0.2153,0.2106,0.1993,0.1981,0.1884,0.1858,0.2184,0.2184,0.2184,0.2184,0.2183,0,0.1009,0.1032,0.1136,0.1162,0.1213,0.1265,0.1302,0.1355,0.1451,0.1521,0.1657,0.1736,0.1921,0.2016,0.2082,0.2128,0.2206,0.2054,0.201,0.1948,0.1929,0.1978,0.1954,0.2184,0.2184,0.2184,0.2184,0,0.0909,0.0984,0.1022,0.1142,0.1177,0.1201,0.1267,0.129,0.1377,0.1459,0.1505,0.1665,0.179,0.1927,0.2034,0.2089,0.2152,0.2105,0.1997,0.1942,0.1927,0.1913,0.2024,0.2021,0.2019,0.2017,0.2016,0,0.0845,0.0869,0.0992,0.1023,0.1068,0.1128,0.1159,0.1254,0.1289,0.1429,0.1476,0.1573,0.1692,0.1845,0.1941,0.2043,0.2044,0.1941,0.1912,0.1981,0.1927,0.1916,0.1906,0.1855,0.1853,0.185,0.1849,0,0.0749,0.0794,0.0848,0.0925,0.0973,0.1018,0.1082,0.1113,0.124,0.1319,0.145,0.1541,0.1661,0.1771,0.1822,0.1863,0.1956,0.1889,0.2045,0.189,0.1819,0.1765,0.1762,0.1828,0.183,0.1832,0.1833,0.1834,0.067,0.0681,0.0767,0.082,0.0871,0.0921,0.0948,0.1044,0.1129,0.1275,0.1382,0.1497,0.1588,0.166,0.1695,0.1703,0.1787,0.1751,0.176,0.1772,0.1734,0.1662,0.1632,0.1632,0.1633,0.1634,0.1634,0,0.0582,0.062,0.0661,0.0737,0.0762,0.082,0.0906,0.0958,0.1069,0.1221,0.1346,0.1326,0.1432,0.1504,0.1535,0.1559,0.156,0.1474,0.1511,0.1532,0.1552,0.1504,0.134,0.1338,0.1337,0.1336,0,0,0.0546,0.0561,0.0595,0.0633,0.068,0.0724,0.0771,0.0878,0.0993,0.11,0.1182,0.1348,0.1465,0.1372,0.1405,0.1394,0.1429,0.1331,0.1578,0.1642,0.1659,0.1733,0.1687,0,0,0,0,0]},{"header":{"parameterUnit":"m.s-1","parameterCategory":2,"la1":30.2991,"la2":30.254,"lo1":-89.0895,"lo2":-89.0444,"dy":0.0017,"dx":0.0017,"nx":28,"ny":28,"refTime":"2024-07-01T21:00:00:Z","depth":"2","parameterNumber":3,"parameterNumberName":"V-component_of_CURRENTS"},"data":[0,0,0,0,0,0,0,0,0,0,0,0,0,0,0,0,0,0,0,0,0,0,0,0,0,0,0,0,0,0,0,0,0,0,0,0,0,0,0,0,0,0,0,0,0,0,0,0,0,0,0,0,0,0,0,0,0,0,-0.0306,-0.0307,0,-0.0406,-0.0407,-0.0408,-0.0398,-0.0397,-0.0396,-0.0395,-0.0407,-0.0409,-0.041,0,0,0,0,0,0,0,0,0,0,0,0,0,-0.0302,-0.03,-0.0306,-0.0307,-0.0309,-0.0406,-0.0407,-0.0408,-0.0398,-0.0397,-0.0395,-0.0394,-0.0407,-0.0409,-0.041,0,0,0,0,0,0,0,0,0,0,0,0,0,-0.0338,-0.03,-0.0305,-0.0319,-0.0322,-0.0406,-0.0407,-0.0408,-0.0398,-0.0397,-0.0395,-0.0394,-0.0406,-0.0408,-0.041,-0.0457,0,0,-0.0417,-0.0418,0,0,0,0,0,0,0,0,-0.0336,-0.0337,-0.0316,-0.0319,-0.0322,-0.0392,-0.0411,-0.0422,-0.0399,-0.0364,-0.0395,-0.0393,-0.0398,-0.0401,-0.0418,-0.0458,-0.0458,-0.0417,-0.0418,-0.0419,-0.042,0,0,0,0,0,0,0,-0.0333,-0.0334,-0.0341,-0.0318,-0.0322,-0.0389,-0.0389,-0.0414,-0.0384,-0.0367,-0.0368,-0.0387,-0.0399,-0.0416,-0.0418,-0.0458,-0.0417,-0.0419,-0.042,-0.0421,-0.047,-0.047,0,0,0,0,0,0,-0.0321,-0.0331,-0.0337,-0.0344,-0.033,-0.0389,-0.039,-0.0367,-0.0386,-0.0389,-0.0389,-0.0387,-0.0414,-0.0416,-0.0419,-0.0397,-0.0419,-0.0421,-0.0422,-0.0469,-0.047,-0.047,0,0,0,0,0,0,-0.032,-0.0319,-0.0333,-0.0347,-0.0353,-0.039,-0.0365,-0.037,-0.0397,-0.0404,-0.0404,-0.0412,-0.0412,-0.0416,-0.0434,-0.04,-0.0422,-0.0424,-0.0469,-0.047,-0.047,-0.0403,0,0,0,0,0,0,-0.0319,-0.0317,-0.0303,-0.0344,-0.0352,-0.0403,-0.0368,-0.0374,-0.0413,-0.0411,-0.0424,-0.0423,-0.0411,-0.0431,-0.0436,-0.0403,-0.0426,-0.0469,-0.0469,-0.047,-0.0405,-0.0401,-0.0397,0,0,0,0,0,-0.0317,-0.0287,-0.03,-0.0302,-0.0327,-0.0406,-0.0417,-0.0436,-0.0416,-0.0448,-0.0431,-0.0423,-0.0434,-0.0434,-0.0439,-0.0406,-0.0469,-0.0469,-0.047,-0.0407,-0.0402,-0.0397,0,0,0,0,0,0,-0.0282,-0.0285,-0.03,-0.0273,-0.0353,-0.0406,-0.0409,-0.045,-0.0467,-0.0444,-0.044,-0.044,-0.0435,-0.045,-0.0449,-0.0423,-0.0445,-0.0446,-0.0395,-0.039,-0.0386,-0.0379,-0.0427,0,0,0,0,0,-0.027,-0.0248,-0.0303,-0.0301,-0.0309,-0.037,-0.0402,-0.044,-0.0463,-0.047,-0.0462,-0.0451,-0.0444,-0.0441,-0.0444,-0.045,-0.0478,-0.043,-0.0426,-0.0422,-0.0422,-0.0456,-0.0455,-0.047,-0.047,-0.047,0,0,-0.0264,-0.0265,-0.0256,-0.0295,-0.0321,-0.0337,-0.0381,-0.0434,-0.0448,-0.0468,-0.0437,-0.0446,-0.0447,-0.0428,-0.0427,-0.0433,-0.0431,-0.0422,-0.0418,-0.042,-0.0456,-0.0455,-0.0453,-0.047,-0.047,-0.047,0,0,-0.0258,-0.0225,-0.0214,-0.0246,-0.031,-0.0338,-0.036,-0.0414,-0.0424,-0.0444,-0.0432,-0.0433,-0.0425,-0.0412,-0.0404,-0.0395,-0.0414,-0.0389,-0.0353,-0.0386,-0.0385,-0.0385,-0.0408,-0.041,-0.038,-0.038,-0.038,0,-0.0267,-0.0238,-0.0244,-0.024,-0.026,-0.0325,-0.0348,-0.036,-0.0425,-0.0423,-0.0419,-0.0395,-0.0407,-0.0376,-0.0364,-0.0381,-0.0407,-0.0364,-0.038,-0.038,-0.038,-0.0405,-0.0408,-0.0377,-0.0377,-0.0377,-0.0378,0,-0.0246,-0.0233,-0.0219,-0.021,-0.024,-0.0274,-0.0296,-0.0315,-0.0321,-0.0331,-0.032,-0.0335,-0.0312,-0.0319,-0.0335,-0.0333,-0.0352,-0.0374,-0.0387,-0.0374,-0.0401,-0.0406,-0.0372,-0.0373,-0.0374,-0.0375,0,0,-0.0266,-0.022,-0.0218,-0.0218,-0.023,-0.0262,-0.0243,-0.0273,-0.0263,-0.0262,-0.023,-0.0227,-0.0225,-0.0222,-0.0243,-0.0285,-0.0314,-0.0329,-0.0332,-0.0343,-0.0384,-0.0442,-0.0453,-0.0339,-0.034,-0.034,-0.0397,0,-0.0277,-0.0247,-0.0234,-0.0233,-0.0219,-0.024,-0.0224,-0.0243,-0.0248,-0.0211,-0.0193,-0.0175,-0.0183,-0.0194,-0.0209,-0.0273,-0.0324,-0.0296,-0.0403,-0.0406,-0.0452,-0.046,-0.0405,-0.0456,-0.0402,-0.0402,-0.0403,0,-0.0292,-0.0254,-0.0236,-0.0237,-0.0232,-0.0233,-0.0235,-0.0242,-0.0192,-0.019,-0.0133,-0.0119,-0.009,-0.015,-0.0198,-0.0175,-0.0281,-0.0358,-0.0362,-0.0445,-0.0474,-0.0464,-0.0466,-0.0411,-0.041,-0.041,-0.0409,0,-0.0312,-0.029,-0.0271,-0.0255,-0.0229,-0.0235,-0.0238,-0.0224,-0.0215,-0.0171,-0.0157,-0.009,-0.0094,-0.0137,-0.0219,-0.0224,-0.032,-0.0339,-0.05,-0.0504,-0.0494,-0.0497,-0.0459,-0.0459,-0.0458,-0.0458,-0.0458,0,-0.0342,-0.0334,-0.0267,-0.0234,-0.022,-0.0223,-0.0218,-0.0223,-0.0187,-0.0147,-0.0128,-0.011,-0.0116,-0.0139,-0.0197,-0.0319,-0.0283,-0.05,-0.0528,-0.047,-0.047,-0.0463,-0.0463,-0.046,-0.046,-0.046,-0.0459,0,-0.0387,-0.0343,-0.0301,-0.0236,-0.0222,-0.0205,-0.0184,-0.0178,-0.0179,-0.0128,-0.0111,-0.0117,-0.018,-0.0203,-0.0319,-0.0349,-0.0441,-0.0538,-0.0459,-0.0479,-0.0608,-0.0603,-0.0684,-0.0687,-0.0689,-0.0691,-0.0692,0,-0.0417,-0.0385,-0.0273,-0.0236,-0.0206,-0.0173,-0.0157,-0.0149,-0.0137,-0.0133,-0.0102,-0.0181,-0.0184,-0.0319,-0.0424,-0.0522,-0.0571,-0.061,-0.0634,-0.0615,-0.0633,-0.0625,-0.0618,-0.0581,-0.0581,-0.0582,-0.0582,0,-0.044,-0.0382,-0.0317,-0.0219,-0.0179,-0.014,-0.0117,-0.0091,-0.008,-0.0058,-0.0051,-0.0059,-0.023,-0.0306,-0.0505,-0.0574,-0.055,-0.0631,-0.062,-0.0547,-0.0526,-0.0542,-0.0536,-0.0586,-0.0586,-0.0585,-0.0585,-0.0585,-0.0446,-0.04,-0.0292,-0.022,-0.0166,-0.0115,-0.0086,-0.0049,-0.0002,0.0065,0.0029,0.005,-0.0124,-0.0334,-0.0488,-0.0659,-0.0693,-0.0716,-0.071,-0.0705,-0.0698,-0.0684,-0.0771,-0.0772,-0.0772,-0.0773,-0.0773,0,-0.0444,-0.0383,-0.0312,-0.0209,-0.0158,-0.0123,-0.0067,-0.0018,0.0055,0.0149,0.019,0.011,-0.0042,-0.0236,-0.0491,-0.0675,-0.0644,-0.0727,-0.0627,-0.0624,-0.062,-0.0604,-0.0655,-0.0655,-0.0655,-0.0655,0,0,-0.0432,-0.0362,-0.0314,-0.0218,-0.0159,-0.009,-0.0048,0.0052,0.0134,0.0274,0.0344,0.0333,0.0064,-0.0088,-0.0348,-0.0491,-0.0509,-0.0519,-0.0597,-0.0447,-0.044,-0.0605,-0.0577,0,0,0,0,0]}],[{"header":{"parameterUnit":"m.s-1","parameterCategory":2,"la1":30.2991,"la2":30.254,"lo1":-89.0895,"lo2":-89.0444,"dy":0.0017,"dx":0.0017,"nx":28,"ny":28,"refTime":"2024-07-01T21:00:00:Z","depth":"4","parameterNumber":2,"parameterNumberName":"U-component_of_CURRENTS"},"data":[0,0,0,0,0,0,0,0,0,0,0,0,0,0,0,0,0,0,0,0,0,0,0,0,0,0,0,0,0,0,0,0,0,0,0,0,0,0,0,0,0,0,0,0,0,0,0,0,0,0,0,0,0,0,0,0,0,0,0.0531,0.0531,0,0.0549,0.0549,0.0549,0.0561,0.0562,0.0562,0.0562,0.0611,0.0612,0.0613,0,0,0,0,0,0,0,0,0,0,0,0,0,0.0462,0.0463,0.0531,0.0531,0.0532,0.0549,0.0549,0.0549,0.0561,0.0562,0.0562,0.0562,0.0611,0.0612,0.0614,0,0,0,0,0,0,0,0,0,0,0,0,0,0.0484,0.0463,0.053,0.0542,0.0543,0.0549,0.0549,0.0549,0.0561,0.0562,0.0562,0.0563,0.0611,0.0612,0.0614,0.0613,0,0,0.0618,0.0619,0,0,0,0,0,0,0,0,0.0483,0.0487,0.054,0.0541,0.0543,0.0556,0.0543,0.0573,0.0561,0.0551,0.0562,0.0563,0.0597,0.06,0.0598,0.0615,0.0617,0.0618,0.0619,0.062,0.062,0,0,0,0,0,0,0,0.0482,0.0486,0.0535,0.054,0.0542,0.0531,0.0535,0.0548,0.057,0.0552,0.0554,0.056,0.0598,0.0596,0.0599,0.0618,0.0618,0.062,0.0621,0.0621,0.0666,0.0667,0,0,0,0,0,0,0.0487,0.0484,0.0535,0.0536,0.0517,0.0532,0.0537,0.0549,0.0569,0.0573,0.056,0.0561,0.0593,0.0597,0.0601,0.0645,0.062,0.0621,0.0622,0.0666,0.0666,0.0667,0,0,0,0,0,0,0.0486,0.0492,0.0534,0.0512,0.0517,0.0534,0.0547,0.0549,0.0568,0.0575,0.0579,0.058,0.0594,0.0599,0.0629,0.0646,0.0622,0.0623,0.0666,0.0666,0.0667,0.0706,0,0,0,0,0,0,0.0484,0.0491,0.0507,0.0513,0.0519,0.0554,0.0547,0.0549,0.0571,0.0573,0.0593,0.0597,0.0595,0.0627,0.0631,0.0647,0.0625,0.0665,0.0666,0.0666,0.0704,0.0707,0.071,0,0,0,0,0,0.0481,0.0502,0.0508,0.0514,0.0539,0.0555,0.0558,0.0568,0.0572,0.0586,0.0597,0.0597,0.0633,0.0629,0.0633,0.0651,0.0665,0.0666,0.0666,0.0703,0.0707,0.071,0,0,0,0,0,0,0.048,0.0506,0.0512,0.054,0.0554,0.0559,0.0572,0.058,0.0598,0.0604,0.0608,0.0613,0.0641,0.064,0.0636,0.0662,0.0646,0.0648,0.0672,0.0676,0.0679,0.0672,0.0626,0,0,0,0,0,0.0487,0.0514,0.0528,0.0553,0.056,0.0569,0.058,0.0589,0.0603,0.0611,0.0627,0.0637,0.0642,0.0657,0.0662,0.0686,0.0679,0.0696,0.0699,0.0702,0.0698,0.07,0.0704,0.0669,0.0669,0.0669,0,0,0.0492,0.0513,0.0526,0.0556,0.0564,0.0577,0.0577,0.06,0.0614,0.0614,0.0646,0.0653,0.065,0.0671,0.0683,0.0677,0.071,0.0703,0.0706,0.0699,0.0701,0.0705,0.0708,0.0669,0.0669,0.0669,0,0,0.0506,0.0533,0.0551,0.0567,0.0592,0.0598,0.0611,0.063,0.0641,0.067,0.0667,0.0686,0.0707,0.0705,0.0704,0.0729,0.0725,0.0733,0.0751,0.0754,0.0757,0.076,0.0766,0.0768,0.0738,0.0739,0.0739,0,0.0506,0.0537,0.0559,0.0577,0.0592,0.061,0.0625,0.0637,0.0667,0.0679,0.0687,0.071,0.0717,0.0726,0.0734,0.0737,0.0739,0.074,0.0759,0.0761,0.0763,0.0768,0.0771,0.074,0.074,0.074,0.074,0,0.0529,0.0554,0.0566,0.0596,0.0616,0.0636,0.0653,0.068,0.0701,0.0711,0.0737,0.0744,0.0758,0.0762,0.0758,0.0773,0.0771,0.0762,0.0752,0.0769,0.0773,0.0775,0.0743,0.0743,0.0742,0.0742,0,0,0.0515,0.0569,0.0573,0.0589,0.0629,0.0644,0.0674,0.0699,0.0724,0.0747,0.0773,0.078,0.0791,0.0789,0.0789,0.0792,0.0815,0.0788,0.0788,0.0798,0.0829,0.085,0.0854,0.0814,0.0814,0.0815,0.083,0,0.0518,0.0554,0.0585,0.0616,0.063,0.0664,0.0692,0.0722,0.0752,0.0786,0.0787,0.0816,0.0797,0.0822,0.0816,0.0819,0.082,0.0812,0.0806,0.0806,0.0825,0.0856,0.0816,0.0832,0.0832,0.0832,0.0832,0,0.0521,0.0547,0.0578,0.0627,0.0637,0.0664,0.0717,0.0747,0.0792,0.0818,0.084,0.0854,0.0868,0.0853,0.0849,0.0848,0.084,0.0832,0.0833,0.0837,0.083,0.0807,0.0835,0.0835,0.0835,0.0835,0.0835,0,0.0494,0.054,0.0568,0.0584,0.0641,0.0668,0.0705,0.0757,0.0793,0.0851,0.0889,0.0894,0.0923,0.09,0.09,0.0881,0.0897,0.0867,0.087,0.0871,0.0828,0.0825,0.0857,0.0857,0.0857,0.0856,0.0856,0,0.0484,0.0504,0.056,0.0575,0.0614,0.0661,0.0714,0.0757,0.0822,0.0871,0.0907,0.0945,0.094,0.0954,0.0922,0.0916,0.0916,0.0879,0.088,0.0846,0.0844,0.083,0.0827,0.0857,0.0857,0.0857,0.0857,0,0.0453,0.0489,0.0523,0.0584,0.0605,0.0638,0.0723,0.0761,0.0833,0.0901,0.093,0.0995,0.1032,0.1023,0.1012,0.0964,0.0946,0.0941,0.0925,0.0924,0.0905,0.0903,0.0932,0.0933,0.0934,0.0934,0.0935,0,0.0441,0.0454,0.0523,0.0549,0.0581,0.0637,0.0677,0.0757,0.0803,0.0927,0.0953,0.1038,0.1071,0.106,0.1056,0.1021,0.1,0.0977,0.0914,0.0916,0.0914,0.0911,0.0909,0.0936,0.0937,0.0937,0.0937,0,0.041,0.0441,0.0475,0.0531,0.0575,0.0623,0.0688,0.0718,0.0821,0.0889,0.0969,0.1008,0.1063,0.1062,0.1068,0.1026,0.0982,0.0985,0.0981,0.0921,0.0922,0.0918,0.0915,0.094,0.0939,0.0939,0.0939,0,0.0385,0.0406,0.0458,0.0507,0.0563,0.0602,0.0637,0.0702,0.0758,0.089,0.0917,0.1001,0.1065,0.1069,0.1062,0.1051,0.1014,0.0947,0.0944,0.0941,0.094,0.0941,0.0974,0,0,0,0,0,0.035,0.038,0.0428,0.0483,0.0542,0.0574,0.0645,0.0683,0.0776,0.0816,0.0868,0.0923,0.0971,0.1008,0.0995,0.1055,0.1005,0.1035,0.0922,0.0955,0.0952,0.0951,0,0,0,0,0,0,0.033,0.0372,0.0412,0.0458,0.0492,0.0546,0.0589,0.0648,0.0674,0.0772,0.0796,0.0875,0.092,0.0969,0.0979,0.099,0.0902,0.1086,0.1084,0.0957,0.0954,0.0952,0.0949,0,0,0,0,0]},{"header":{"parameterUnit":"m.s-1","parameterCategory":2,"la1":30.2991,"la2":30.254,"lo1":-89.0895,"lo2":-89.0444,"dy":0.0017,"dx":0.0017,"nx":28,"ny":28,"refTime":"2024-07-01T21:00:00:Z","depth":"4","parameterNumber":3,"parameterNumberName":"V-component_of_CURRENTS"},"data":[0,0,0,0,0,0,0,0,0,0,0,0,0,0,0,0,0,0,0,0,0,0,0,0,0,0,0,0,0,0,0,0,0,0,0,0,0,0,0,0,0,0,0,0,0,0,0,0,0,0,0,0,0,0,0,0,0,0,-0.0174,-0.0174,0,-0.0241,-0.0241,-0.0242,-0.0296,-0.0296,-0.0297,-0.0297,-0.0396,-0.0398,-0.04,0,0,0,0,0,0,0,0,0,0,0,0,0,-0.0093,-0.0095,-0.0174,-0.0175,-0.0175,-0.0241,-0.0241,-0.0242,-0.0295,-0.0296,-0.0297,-0.0298,-0.0395,-0.0397,-0.04,0,0,0,0,0,0,0,0,0,0,0,0,0,-0.0141,-0.0095,-0.0173,-0.021,-0.0214,-0.024,-0.0241,-0.0243,-0.0295,-0.0296,-0.0297,-0.0298,-0.0394,-0.0397,-0.04,-0.0403,0,0,-0.041,-0.0411,0,0,0,0,0,0,0,0,-0.0138,-0.0144,-0.0204,-0.0208,-0.0212,-0.0261,-0.0249,-0.0298,-0.0295,-0.0264,-0.0297,-0.0298,-0.0353,-0.036,-0.0369,-0.0407,-0.0411,-0.041,-0.0412,-0.0413,-0.0414,0,0,0,0,0,0,0,-0.0135,-0.0141,-0.02,-0.0205,-0.021,-0.0224,-0.0231,-0.0259,-0.0303,-0.0267,-0.0271,-0.0279,-0.0356,-0.0366,-0.0372,-0.0413,-0.041,-0.0413,-0.0415,-0.0416,-0.0517,-0.0517,0,0,0,0,0,0,-0.0126,-0.0138,-0.0198,-0.0202,-0.0177,-0.0224,-0.0233,-0.0244,-0.0302,-0.0312,-0.0278,-0.0281,-0.036,-0.0368,-0.0376,-0.0444,-0.0413,-0.0416,-0.0418,-0.0516,-0.0517,-0.0518,0,0,0,0,0,0,-0.0124,-0.0131,-0.0195,-0.0171,-0.0181,-0.0225,-0.0237,-0.0245,-0.027,-0.0311,-0.0321,-0.0297,-0.0361,-0.0372,-0.041,-0.0446,-0.0418,-0.0421,-0.0515,-0.0516,-0.0517,-0.054,0,0,0,0,0,0,-0.0122,-0.013,-0.0138,-0.0171,-0.0182,-0.0217,-0.0237,-0.0246,-0.0273,-0.0278,-0.033,-0.0339,-0.0363,-0.0405,-0.0413,-0.0449,-0.0423,-0.0514,-0.0516,-0.0517,-0.0538,-0.0541,-0.0544,0,0,0,0,0,-0.0119,-0.0131,-0.0138,-0.0145,-0.019,-0.0217,-0.0224,-0.0258,-0.0273,-0.0284,-0.0319,-0.0338,-0.0421,-0.0408,-0.0417,-0.0455,-0.0513,-0.0515,-0.0517,-0.0536,-0.0541,-0.0544,0,0,0,0,0,0,-0.0102,-0.0138,-0.0147,-0.017,-0.0191,-0.0227,-0.0242,-0.0261,-0.0296,-0.0307,-0.0342,-0.0354,-0.0405,-0.0419,-0.0403,-0.0487,-0.0473,-0.0476,-0.0485,-0.0489,-0.0492,-0.0495,-0.0426,0,0,0,0,0,-0.0099,-0.0122,-0.0148,-0.0168,-0.0176,-0.0208,-0.0224,-0.0247,-0.028,-0.0297,-0.0335,-0.0375,-0.0416,-0.0442,-0.0475,-0.0515,-0.0516,-0.0546,-0.0549,-0.0552,-0.056,-0.0582,-0.0588,-0.0524,-0.0524,-0.0524,0,0,-0.0099,-0.0122,-0.0136,-0.0166,-0.0186,-0.0208,-0.0221,-0.025,-0.0277,-0.0302,-0.0354,-0.0387,-0.0427,-0.0478,-0.0502,-0.0497,-0.0569,-0.0554,-0.0556,-0.0563,-0.0585,-0.0591,-0.0597,-0.0525,-0.0525,-0.0524,0,0,-0.0117,-0.0127,-0.0154,-0.0167,-0.0198,-0.0216,-0.0224,-0.0263,-0.0287,-0.033,-0.0363,-0.0412,-0.0467,-0.051,-0.0536,-0.0574,-0.0583,-0.059,-0.0616,-0.0638,-0.0643,-0.0648,-0.0645,-0.065,-0.0595,-0.0595,-0.0595,0,-0.0122,-0.0148,-0.0164,-0.0186,-0.0197,-0.0219,-0.024,-0.0267,-0.0318,-0.0339,-0.035,-0.0446,-0.0486,-0.0552,-0.0578,-0.0585,-0.0587,-0.0599,-0.0642,-0.0647,-0.0652,-0.0648,-0.0653,-0.0596,-0.0596,-0.0596,-0.0596,0,-0.016,-0.017,-0.0183,-0.0219,-0.0232,-0.0251,-0.0279,-0.0305,-0.0335,-0.0366,-0.043,-0.0481,-0.0538,-0.0567,-0.0593,-0.0656,-0.0641,-0.064,-0.0631,-0.0659,-0.0653,-0.0658,-0.0598,-0.0598,-0.0597,-0.0597,0,0,-0.0209,-0.021,-0.0219,-0.0209,-0.0246,-0.0254,-0.0297,-0.0333,-0.0353,-0.0415,-0.0453,-0.0546,-0.0572,-0.0604,-0.0642,-0.0679,-0.0722,-0.0683,-0.0684,-0.0678,-0.0753,-0.0712,-0.0712,-0.0727,-0.0729,-0.073,-0.0731,0,-0.0238,-0.0251,-0.0264,-0.0274,-0.0265,-0.0287,-0.0314,-0.035,-0.0384,-0.0424,-0.0491,-0.054,-0.0585,-0.0614,-0.0664,-0.0708,-0.0737,-0.072,-0.0729,-0.0729,-0.0687,-0.0718,-0.0734,-0.0734,-0.0735,-0.0736,-0.0736,0,-0.0275,-0.0271,-0.0272,-0.0253,-0.0258,-0.0279,-0.0301,-0.0332,-0.0392,-0.0417,-0.0484,-0.0527,-0.0614,-0.063,-0.0724,-0.071,-0.074,-0.0766,-0.0766,-0.0726,-0.0696,-0.0703,-0.0744,-0.0744,-0.0743,-0.0742,-0.0742,0,-0.0257,-0.0273,-0.0261,-0.0259,-0.0258,-0.0272,-0.0292,-0.0336,-0.035,-0.0416,-0.0431,-0.0527,-0.0568,-0.0637,-0.0717,-0.0719,-0.0793,-0.0791,-0.0774,-0.077,-0.0796,-0.079,-0.0841,-0.0841,-0.0841,-0.0841,-0.0841,0,-0.0254,-0.0243,-0.0248,-0.023,-0.0226,-0.0246,-0.0258,-0.0284,-0.033,-0.034,-0.0428,-0.0448,-0.0574,-0.0635,-0.0704,-0.0755,-0.078,-0.0785,-0.0776,-0.0802,-0.0798,-0.0798,-0.0792,-0.0841,-0.0841,-0.0841,-0.0841,0,-0.0209,-0.0214,-0.0187,-0.0194,-0.02,-0.0196,-0.0222,-0.0234,-0.0276,-0.0293,-0.0313,-0.0398,-0.047,-0.0578,-0.0677,-0.0719,-0.0779,-0.0784,-0.0794,-0.0784,-0.074,-0.0736,-0.0761,-0.076,-0.0759,-0.0758,-0.0757,0,-0.018,-0.0163,-0.0151,-0.0145,-0.0148,-0.0155,-0.0164,-0.0201,-0.0214,-0.0249,-0.0256,-0.0328,-0.0389,-0.0483,-0.061,-0.0721,-0.0736,-0.0758,-0.0775,-0.0748,-0.0736,-0.0734,-0.0732,-0.0755,-0.0755,-0.0755,-0.0754,0,-0.0135,-0.0133,-0.0114,-0.0096,-0.0099,-0.0092,-0.0111,-0.0102,-0.0142,-0.0175,-0.0178,-0.0244,-0.0318,-0.0436,-0.053,-0.0614,-0.0747,-0.0747,-0.075,-0.0766,-0.0741,-0.073,-0.0729,-0.0751,-0.0751,-0.0752,-0.0752,0,-0.0117,-0.0096,-0.0083,-0.0062,-0.0056,-0.0043,-0.0047,-0.0059,-0.0066,-0.0104,-0.0096,-0.0188,-0.0256,-0.0377,-0.0466,-0.0551,-0.0569,-0.0586,-0.0597,-0.0603,-0.057,-0.0517,-0.0454,0,0,0,0,0,-0.0114,-0.0089,-0.0062,-0.0034,-0.0021,-0.002,-0.0026,-0.0038,-0.0058,-0.0037,-0.0063,-0.0123,-0.0239,-0.0307,-0.0379,-0.0467,-0.0606,-0.0554,-0.0637,-0.073,-0.0734,-0.0721,0,0,0,0,0,0,-0.0114,-0.0089,-0.0056,-0.002,0.0002,0.0012,0.0015,0.0005,0.001,-0.0012,-0.0074,-0.0117,-0.0245,-0.0186,-0.0368,-0.0401,-0.0457,-0.0625,-0.0626,-0.0728,-0.0732,-0.0735,-0.0723,0,0,0,0,0]}]]